Regional Weather Roundup
Issued by NWS

Home | Current Version | Previous Version | Graphics & Text | Print | Product List | Glossary On
Versions: 1 2 3 4 5 6 7 8 9 10 11 12 13 14 15 16 17 18 19 20 21 22 23 24 25 26 27 28 29 30 31 32 33 34 35 36 37 38 39 40 41 42 43 44 45 46 47 48 49 50
000
ASUS43 KIND 210909
RWRIN

WEATHER ROUNDUP FOR INDIANA
NATIONAL WEATHER SERVICE INDIANAPOLIS IN
400 AM EST WED FEB 21 2018

NOTE: "FAIR" INDICATES FEW OR NO CLOUDS BELOW 12,000 FEET WITH NO
SIGNIFICANT WEATHER AND/OR OBSTRUCTIONS TO VISIBILITY.

* - STATION DOES NOT REPORT WEATHER SUCH AS PRECIPITATION OR FOG.

+ - STATION NOT QUALITY CONTROLLED BY THE NATIONAL WEATHER SERVICE.
    USE DATA WITH CAUTION...ESPECIALLY DEWPOINT AND RELATIVE
    HUMIDITY OBSERVATIONS.

INZ001>003-010>013-019-020-211000-
NORTHWEST INDIANA

CITY           SKY/WX    TMP DP  RH WIND       PRES   REMARKS
GARY /AIRPORT/ LGT SNOW  33  33 100 N16G22    30.28R WCI  23
LA PORTE +     LGT SNOW  32  31  96 N14G20    30.25R WCI  22
MICHIGAN CITY+ RAIN      32  32 100 NW8G20    30.27R WCI  25
MONTICELLO +   RAIN      37  36  96 NW17      30.22R WCI  27
RENSSELAER +   LGT RAIN  36  32  87 NW12G20   30.24R WCI  27
VALPARAISO     LGT RAIN  34  32  92 N14G22    30.26R FOG     WCI  25

$$

LMZ046-743>745-211000-
SOUTHERN LAKE MICHIGAN

STATION/POSITION TIME  TEMP    WIND        PRES    WAVE
                       AIR SEA DIR/SP/G            HT
                 (UTC) (F)     (DEG/KT/KT) (MB)    (FT)
BURNS HARBOR     0840   32     340/ 19/ 22 1024.7R
MICHIGAN CITY    0840   31     320/ 23/ 25   N/A

$$

INZ004-005-014>016-021>024-211000-
NORTH CENTRAL INDIANA

CITY           SKY/WX    TMP DP  RH WIND       PRES   REMARKS
GOSHEN         RAIN      38  36  92 NW17      30.18R FOG     WCI  28
LOGANSPORT +   RAIN      37  36  93 NW12      30.20R WCI  30
PERU/GRISSOM   RAIN      40  40 100 NW12      30.18R WCI  33
ROCHESTER +    RAIN      39  37  93 NW13      30.20R WCI  32
SOUTH BEND     LGT RAIN  33  31  92 NW14G23   30.23R WCI  23
WARSAW +       RAIN      36  36 100 NE9       30.17R WCI  29

$$

INZ006>009-017-018-025>027-211000-
NORTHEAST INDIANA

CITY           SKY/WX    TMP DP  RH WIND       PRES   REMARKS
AUBURN +       RAIN      43  41  93 NW7       30.15R
FORT WAYNE     LGT RAIN  45  43  93 NW13      30.15R
HUNTINGTON +   LGT RAIN  42  41  96 N8        30.15R
KENDALLVILLE + LGT RAIN  40  40 100 N7        30.15R WCI  35

$$

INZ028-029-035-036-043>045-051>053-211000-
WEST CENTRAL INDIANA

CITY           SKY/WX    TMP DP  RH WIND       PRES   REMARKS
CRAWFORDSVL +  LGT SNOW  37  37 100 NW12      30.15R WCI  29
GREENCASTLE +  LGT RAIN  41  39  93 NW8       30.20R
LAFAYETTE      RAIN      37  36  96 NW14      30.23R FOG     WCI  28
TERRE HAUTE    LGT RAIN  39  37  92 N14       30.20S WCI  31

$$

INZ030>032-037>040-046>048-054>057-064-065-211000-
CENTRAL INDIANA

CITY           SKY/WX    TMP DP  RH WIND       PRES   REMARKS
FISHERS *+     CLOUDY    45  45 100 NW8       30.18R
FRANKFORT +    LGT RAIN  44  42  94 NW12      30.21R
GREENWOOD *+   CLOUDY    50 -41   2 NW15      30.15R
INDIANAPOLIS   LGT RAIN  45  44  97 NW14      30.18R
-EAGLE CREEK   RAIN      46  42  86 NW13      30.16R
KOKOMO +       RAIN      42  41  96 NW12      30.19R
MARION +       RAIN      43  42  97 N14G20    30.15R
MT COMFORT *+  CLOUDY    48  48 100 NW13G18   30.16R
SHELBYVILLE    HVY RAIN  57  54  89 NW12      30.13R FOG
ZIONSVILLE +   RAIN      43  43  99 NW8G16    30.18R

$$

INZ033-034-041-042-049-050-058-059-211000-
EAST CENTRAL INDIANA

CITY           SKY/WX    TMP DP  RH WIND       PRES   REMARKS
MUNCIE         LGT RAIN  54  52  93 NW10      30.12R FOG
RICHMOND +     MOCLDY    61  59  94 S16       30.08S

$$

INZ060-061-067>069-081>083-085>088-211000-
SOUTHWEST INDIANA

CITY           SKY/WX    TMP DP  RH WIND       PRES   REMARKS
EVANSVILLE     LGT RAIN  46  46 100 N7        30.17F
HUNTINGBURG +  LGT RAIN  52  51  97 NW9       30.18R
WASHINGTON +   RAIN      44  42  94 NW7       30.20R

$$

INZ062-063-066-070>080-084-089>092-211000-
SOUTH CENTRAL AND SOUTHEAST INDIANA

CITY           SKY/WX    TMP DP  RH WIND       PRES   REMARKS
BATESVILLE +   CLOUDY    66  59  77 MISG      30.07S
BEDFORD +      RAIN      57  54  88 NW7       30.15R
BLOOMINGTON    LGT RAIN  52  51  97 NW12      30.16R
FRENCH LICK *+ CLOUDY    52 N/A N/A NW16      30.15R
MADISON *+     FAIR      68  59  73 S16G22    30.12R
NORTH VERNON + MOCLDY    66  57  72 S14G24    30.08S
SEYMOUR +      HVY RAIN  61  55  82 NW21G31   30.14R

$$




USA.gov is the U.S. government's official web portal to all federal, state and local government web resources and services.